EW1296 Weather Reports


time (UTC)temp
C
wind
direction
speed
KPH
gust
KPH
rain 1hr
cm
rain 24hr
cm
rain mn
cm
humidity
%
barometer
mb
20260903205017 32 270 6.4 16.1 0.00 0.36 0.36 54 1012.0
20260903204517 32 225 6.4 14.5 0.00 0.36 0.36 55 1012.0
20260903204017 32 315 6.4 12.9 0.00 0.36 0.36 55 1012.0
20260903203517 32 270 8.0 17.7 0.00 0.36 0.36 55 1012.0
20260903203017 32 270 9.7 20.9 0.00 0.36 0.36 55 1011.9
20260903202517 32 270 8.0 16.1 0.00 0.36 0.36 55 1012.0
20260903202017 32 270 9.7 16.1 0.00 0.36 0.36 55 1011.9
20260903201517 32 270 9.7 17.7 0.00 0.36 0.36 55 1011.9
20260903201017 32 270 6.4 17.7 0.00 0.36 0.36 55 1011.9
20260903200538 32 270 9.7 17.7 0.00 0.36 0.36 55 1012.0
20260903200018 32 248 4.8 16.1 0.00 0.36 0.36 56 1012.1
20260903195517 32 225 4.8 9.7 0.00 0.36 0.36 57 1012.2
20260903195018 31 270 3.2 9.7 0.00 0.36 0.36 57 1012.2
20260903194537 31 0 4.8 16.1 0.00 0.36 0.36 58 1012.2
20260903194015 31 248 4.8 12.9 0.00 0.36 0.36 59 1012.2
20260903193540 31 270 8.0 19.3 0.00 0.36 0.36 58 1012.3
20260903193037 31 248 6.4 14.5 0.00 0.36 0.36 59 1012.4
20260903192517 31 293 3.2 11.3 0.00 0.36 0.36 59 1012.5
20260903192017 31 293 6.4 16.1 0.00 0.36 0.36 59 1012.5
20260903191517 31 248 6.4 17.7 0.00 0.36 0.36 59 1012.6
20260903191017 31 248 8.0 17.7 0.00 0.36 0.36 59 1012.6
20260903190517 31 270 8.0 19.3 0.00 0.36 0.36 60 1012.7
20260903190037 31 270 8.0 20.9 0.00 0.36 0.36 60 1012.7
20260903185517 31 270 9.7 17.7 0.00 0.38 0.36 61 1012.9
20260903185018 31 270 9.7 19.3 0.00 0.38 0.36 60 1012.9
20260903184518 31 248 11.3 24.1 0.00 0.38 0.36 60 1013.0
20260903184018 30 225 11.3 24.1 0.00 0.38 0.36 61 1013.1
20260903183517 30 270 9.7 20.9 0.00 0.38 0.36 61 1013.0
20260903183037 30 270 8.0 19.3 0.00 0.38 0.36 61 1013.1
20260903182517 30 270 12.9 22.5 0.00 0.38 0.36 61 1013.1
20260903182017 30 315 9.7 17.7 0.00 0.38 0.36 61 1013.1
20260903181517 30 225 8.0 16.1 0.00 0.38 0.36 62 1013.1
20260903181017 30 270 11.3 24.1 0.00 0.38 0.36 63 1013.2
20260903180517 30 270 9.7 17.7 0.00 0.38 0.36 63 1013.4
20260903180017 30 270 8.0 17.7 0.00 0.38 0.36 64 1013.4
20260903175517 30 248 8.0 16.1 0.00 0.38 0.36 65 1013.6
20260903175058 30 270 9.7 19.3 0.00 0.38 0.36 64 1013.6
20260903174537 29 270 11.3 19.3 0.00 0.38 0.36 65 1013.6
20260903174037 29 270 11.3 22.5 0.00 0.38 0.36 65 1013.7
20260903173517 30 270 11.3 19.3 0.00 0.38 0.36 64 1013.6
20260903173017 29 270 8.0 17.7 0.00 0.38 0.36 65 1013.6
20260903172517 29 270 6.4 14.5 0.00 0.38 0.36 66 1013.8
20260903172017 28 270 9.7 19.3 0.00 0.38 0.36 66 1014.0
20260903171517 28 270 11.3 20.9 0.00 0.38 0.36 67 1014.0
20260903171018 28 270 12.9 24.1 0.00 0.38 0.36 67 1014.1
20260903170538 28 248 8.0 14.5 0.00 0.38 0.36 68 1014.1
20260903170017 28 270 9.7 19.3 0.00 0.38 0.36 68 1014.2
20260903165518 28 270 12.9 20.9 0.00 0.38 0.36 67 1014.3
20260903165018 28 293 11.3 20.9 0.00 0.38 0.36 65 1014.3
20260903164517 28 270 9.7 22.5 0.00 0.38 0.36 67 1014.4
20260903164017 28 270 12.9 29.0 0.00 0.38 0.36 67 1014.5
20260903163517 28 225 11.3 32.2 0.00 0.38 0.36 67 1014.6
20260903163037 28 270 11.3 20.9 0.00 0.38 0.36 68 1014.5
20260903162517 28 270 11.3 24.1 0.00 0.38 0.36 69 1014.5
20260903162017 28 270 14.5 24.1 0.00 0.38 0.36 70 1014.6
20260903161537 28 225 11.3 22.5 0.00 0.38 0.36 71 1014.6
20260903161017 27 270 8.0 19.3 0.00 0.38 0.36 72 1014.6
20260903160517 27 293 11.3 20.9 0.00 0.38 0.36 73 1014.7
20260903160017 27 270 11.3 19.3 0.00 0.38 0.36 73 1014.6
20260903155517 27 248 8.0 20.9 0.00 0.38 0.36 74 1014.8
20260903155038 27 293 11.3 17.7 0.00 0.38 0.36 74 1015.0
20260903154517 27 270 11.3 19.3 0.00 0.38 0.36 75 1015.0
20260903154017 27 248 6.4 14.5 0.00 0.38 0.36 77 1015.1
20260903153517 26 293 9.7 17.7 0.00 0.38 0.36 77 1015.2
20260903153017 26 270 8.0 16.1 0.00 0.38 0.36 77 1015.1
20260903152517 26 270 11.3 20.9 0.00 0.38 0.36 77 1015.1
20260903152017 26 270 11.3 22.5 0.00 0.38 0.36 78 1015.1
20260903151517 26 270 9.7 20.9 0.00 0.38 0.36 78 1015.1
20260903151037 26 248 11.3 20.9 0.00 0.38 0.36 78 1015.2
20260903150517 26 270 11.3 22.5 0.00 0.38 0.36 79 1014.9
20260903150017 26 270 9.7 17.7 0.00 0.38 0.36 79 1015.1
20260903145517 26 270 9.7 19.3 0.00 0.38 0.36 80 1015.3
20260903145018 26 248 8.0 17.7 0.00 0.38 0.36 82 1015.2
20260903144537 25 270 8.0 16.1 0.00 0.38 0.36 83 1015.2
20260903144018 25 270 6.4 16.1 0.00 0.38 0.36 85 1015.0
20260903143517 25 270 11.3 20.9 0.00 0.38 0.36 86 1014.9
20260903143017 25 248 9.7 19.3 0.00 0.38 0.36 88 1015.0
20260903142517 24 293 11.3 19.3 0.00 0.38 0.36 89 1015.0
20260903142016 24 248 6.4 16.1 0.00 0.38 0.36 91 1015.1
20260903141537 24 248 4.8 11.3 0.00 0.38 0.36 92 1015.0
20260903141017 23 225 8.0 14.5 0.00 0.38 0.36 92 1015.0
20260903140517 23 248 4.8 14.5 0.00 0.38 0.36 93 1015.1
20260903140016 23 270 3.2 11.3 0.00 0.38 0.36 93 1015.2
20260903135537 23 270 4.8 11.3 0.00 0.38 0.36 93 1015.3
20260903135017 23 225 4.8 11.3 0.00 0.38 0.36 94 1015.2
20260903134517 23 203 6.4 14.5 0.00 0.38 0.36 94 1015.2
20260903134016 23 225 4.8 14.5 0.00 0.38 0.36 94 1015.4
20260903133517 22 225 3.2 11.3 0.00 0.38 0.36 95 1015.3
20260903133017 22 248 3.2 14.5 0.00 0.38 0.36 94 1015.4
20260903132537 22 225 4.8 12.9 0.00 0.38 0.36 94 1015.5
20260903132017 22 203 3.2 12.9 0.00 0.38 0.36 95 1015.6
20260903131516 22 225 3.2 9.7 0.00 0.38 0.36 95 1015.1
20260903131037 22 225 3.2 8.0 0.00 0.38 0.36 95 1015.3
20260903130517 22 225 3.2 9.7 0.00 0.38 0.36 95 1015.4
20260903130017 22 225 1.6 9.7 0.00 0.38 0.36 95 1015.5
20260903125539 22 248 4.8 9.7 0.00 0.38 0.36 95 1015.7
20260903125017 22 248 3.2 9.7 0.00 0.38 0.36 95 1015.7
20260903124516 22 270 1.6 6.4 0.00 0.38 0.36 95 1015.6
20260903124017 22 270 1.6 14.5 0.00 0.38 0.36 95 1015.5
20260903123538 22 225 4.8 11.3 0.00 0.38 0.36 95 1015.6
20260903123036 22 270 1.6 8.0 0.00 0.38 0.36 95 1015.4
20260903122516 21 248 3.2 9.7 0.00 0.38 0.36 95 1015.3
20260903122018 21 225 4.8 12.9 0.00 0.38 0.36 95 1015.1
20260903121538 21 225 6.4 14.5 0.00 0.38 0.36 95 1015.3
20260903121016 21 248 3.2 9.7 0.00 0.38 0.36 95 1015.7
20260903120518 21 225 4.8 11.3 0.00 0.38 0.36 95 1015.6
20260903120018 21 270 6.4 14.5 0.00 0.38 0.36 95 1015.9
20260903115516 21 270 3.2 11.3 0.00 0.38 0.36 95 1015.7
20260903115036 21 270 4.8 12.9 0.00 0.38 0.36 95 1015.9
20260903114516 21 270 6.4 14.5 0.00 0.38 0.36 95 1015.7
20260903114038 21 270 6.4 14.5 0.00 0.38 0.36 95 1015.4
20260903113516 21 270 8.0 14.5 0.00 0.38 0.36 95 1015.8
20260903113018 21 270 8.0 14.5 0.00 0.38 0.36 95 1015.6
20260903112537 21 270 6.4 11.3 0.00 0.38 0.36 95 1015.5
20260903112016 21 270 3.2 11.3 0.00 0.38 0.36 95 1015.4
20260903111516 21 270 6.4 12.9 0.00 0.38 0.36 95 1015.5
20260903111016 21 270 8.0 16.1 0.00 0.38 0.36 95 1015.5
20260903110517 21 270 4.8 12.9 0.00 0.38 0.36 95 1015.6
20260903110016 21 270 3.2 11.3 0.00 0.38 0.36 95 1015.7
20260903105516 21 270 1.6 11.3 0.00 0.38 0.36 95 1015.7
20260903105016 21 270 1.6 9.7 0.00 0.38 0.36 95 1015.5
20260903104517 21 0.0 0.0 0.00 0.38 0.36 95 1015.5
20260903104016 21 0.0 0.0 0.00 0.38 0.36 95 1015.6
20260903103516 21 248 1.6 6.4 0.00 0.38 0.36 95 1015.5
20260903103016 21 248 4.8 14.5 0.00 0.38 0.36 95 1015.5
20260903102516 21 225 3.2 12.9 0.00 0.38 0.36 95 1015.5
20260903102016 21 225 6.4 14.5 0.00 0.38 0.36 95 1015.3
20260903101516 21 225 1.6 12.9 0.00 0.38 0.36 95 1015.5
20260903101016 21 248 1.6 8.0 0.00 0.38 0.36 95 1015.6
20260903100516 21 225 4.8 12.9 0.00 0.38 0.36 95 1015.7
20260903100016 21 248 1.6 9.7 0.00 0.38 0.36 95 1015.6
20260903095517 21 225 3.2 11.3 0.00 0.38 0.36 96 1015.7
20260903095018 21 0.0 6.4 0.00 0.38 0.36 96 1015.7
20260903094517 21 270 1.6 6.4 0.00 0.38 0.36 95 1015.6
20260903094016 21 0.0 3.2 0.00 0.38 0.36 95 1015.1
20260903093537 21 225 3.2 9.7 0.03 0.38 0.36 95 1015.2
20260903093016 21 248 4.8 11.3 0.03 0.38 0.36 95 1015.2
20260903092516 21 248 6.4 12.9 0.03 0.38 0.36 95 1015.1
20260903092016 21 248 8.0 19.3 0.03 0.38 0.36 95 1015.0
20260903091536 21 225 4.8 12.9 0.03 0.38 0.36 95 1015.0
20260903091017 21 203 8.0 17.7 0.03 0.38 0.36 95 1014.7
20260903090536 21 225 6.4 14.5 0.03 0.38 0.36 95 1014.7
20260903090016 21 225 8.0 16.1 0.03 0.38 0.36 95 1015.0
20260903085536 21 225 8.0 16.1 0.03 0.38 0.36 95 1015.0
20260903085017 21 225 6.4 17.7 0.03 0.38 0.36 95 1014.7
20260903084536 21 225 1.6 12.9 0.03 0.38 0.36 95 1014.5
20260903084016 21 225 8.0 17.7 0.03 0.38 0.36 95 1015.4
20260903083516 21 225 6.4 17.7 0.00 0.36 0.33 95 1015.9
20260903083017 21 270 3.2 12.9 0.03 0.36 0.33 95 1016.2
20260903082536 21 248 4.8 12.9 0.03 0.36 0.33 95 1016.4
20260903082037 21 270 1.6 9.7 0.05 0.36 0.33 95 1016.5
20260903081618 21 248 3.2 11.3 0.05 0.36 0.33 95 1016.5
20260903081016 21 248 3.2 9.7 0.08 0.36 0.33 95 1016.2
20260903080516 21 248 4.8 9.7 0.08 0.36 0.33 95 1016.2
20260903080016 21 225 3.2 11.3 0.10 0.36 0.33 95 1015.9
20260903075517 21 0.0 1.6 0.10 0.36 0.33 95 1015.7
20260903075037 21 0.0 0.0 0.10 0.36 0.33 95 1015.8
20260903074537 21 0.0 3.2 0.13 0.36 0.33 95 1015.6
20260903074016 21 0.0 9.7 0.13 0.36 0.33 94 1015.5
20260903073517 21 225 3.2 11.3 0.13 0.36 0.33 94 1015.7
20260903073016 21 225 1.6 6.4 0.10 0.33 0.30 94 1015.8
20260903072516 21 0.0 6.4 0.10 0.33 0.30 94 1016.0
20260903072016 21 225 1.6 4.8 0.10 0.30 0.28 94 1016.1
20260903071516 21 0.0 3.2 0.10 0.30 0.28 94 1016.3
20260903071017 21 0.0 1.6 0.08 0.28 0.25 94 1016.5
20260903070516 21 0.0 4.8 0.08 0.28 0.25 94 1016.7
20260903070017 21 225 1.6 6.4 0.05 0.25 0.23 94 1016.9
20260903065516 21 248 3.2 9.7 0.05 0.25 0.23 94 1017.1
20260903065036 21 225 4.8 9.7 0.05 0.25 0.23 94 1017.1
20260903064517 21 0 1.6 9.7 0.05 0.23 0.20 94 1017.0
20260903064017 21 0 1.6 3.2 0.05 0.23 0.20 94 1016.8
20260903063516 21 0.0 3.2 0.08 0.23 0.20 94 1016.7
20260903063016 21 0.0 3.2 0.10 0.23 0.20 94 1016.7
20260903062516 21 0.0 3.2 0.10 0.23 0.20 93 1016.7
20260903062016 21 0.0 1.6 0.08 0.20 0.18 93 1016.5
20260903061517 21 0.0 1.6 0.08 0.20 0.18 93 1016.5
20260903061017 21 0.0 0.0 0.08 0.20 0.18 93 1016.4
20260903060537 21 0.0 1.6 0.10 0.20 0.18 93 1016.5
20260903060016 21 0.0 1.6 0.15 0.20 0.18 93 1016.7
20260903055516 21 0.0 3.2 0.18 0.20 0.18 93 1016.9
20260903055037 21 0.0 3.2 0.18 0.20 0.18 93 1017.1
20260903054536 21 0.0 0.0 0.15 0.18 0.15 93 1017.3
20260903054037 21 0.0 1.6 0.15 0.18 0.15 93 1017.5
20260903053516 21 0.0 1.6 0.13 0.15 0.13 93 1017.6
20260903053017 21 0.0 1.6 0.10 0.13 0.10 92 1017.6
20260903052516 21 0.0 1.6 0.10 0.13 0.10 93 1017.8
20260903052036 22 0.0 1.6 0.10 0.13 0.10 93 1018.0
20260903051516 22 0.0 4.8 0.10 0.13 0.10 93 1018.2
20260903051016 22 293 3.2 6.4 0.10 0.13 0.10 92 1018.6
20260903050516 22 315 3.2 12.9 0.08 0.10 0.10 92 1018.9
20260903050017 22 315 6.4 12.9 0.03 0.05 0.03 92 1019.0
20260903045516 22 315 4.8 8.0 0.00 0.03 0.00 92 1018.8
20260903045016 22 338 1.6 4.8 0.00 0.03 0.00 92 1018.4
20260903044516 22 0.0 0.0 0.00 0.03 0.00 92 1018.0
20260903044037 22 0.0 0.0 0.00 0.03 0.00 92 1018.1
20260903043516 22 0.0 0.0 0.00 0.03 0.00 92 1018.3
20260903043016 22 0.0 1.6 0.00 0.03 0.00 92 1018.6
20260903042515 22 0.0 0.0 0.00 0.03 0.00 92 1018.6
20260903042016 22 0.0 0.0 0.00 0.03 0.00 91 1018.7
20260903041516 22 0.0 1.6 0.00 0.03 0.00 91 1018.7
20260903041036 22 0.0 4.8 0.00 0.03 0.00 91 1018.6
20260903040516 22 0.0 1.6 0.00 0.03 0.00 91 1018.3
20260903040016 22 135 1.6 4.8 0.00 0.03 0.03 91 1018.2
20260903035517 22 135 1.6 3.2 0.00 0.03 0.03 91 1018.4
20260903035017 22 135 1.6 3.2 0.00 0.03 0.03 91 1018.5
20260903034516 22 135 1.6 6.4 0.00 0.03 0.03 91 1018.5
20260903034017 22 113 3.2 6.4 0.00 0.03 0.03 91 1018.5
20260903033516 22 135 3.2 6.4 0.00 0.03 0.03 91 1018.4
20260903033016 22 158 3.2 6.4 0.00 0.03 0.03 91 1018.3
20260903032516 22 135 3.2 8.0 0.00 0.03 0.03 91 1018.2
20260903032017 22 113 3.2 6.4 0.00 0.03 0.03 91 1018.2
20260903031536 22 113 3.2 9.7 0.00 0.03 0.03 91 1018.1
20260903031016 22 113 1.6 9.7 0.00 0.03 0.03 91 1018.3
20260903030516 22 113 4.8 9.7 0.00 0.03 0.03 91 1018.1
20260903030016 22 113 4.8 11.3 0.00 0.03 0.03 91 1018.1
20260903025516 22 113 3.2 9.7 0.00 0.03 0.03 91 1018.2
20260903025016 21 135 4.8 11.3 0.00 0.03 0.03 91 1018.1
20260903024516 21 113 4.8 9.7 0.00 0.03 0.03 90 1018.4
20260903024038 21 113 3.2 9.7 0.00 0.03 0.03 90 1018.5
20260903023516 21 135 1.6 4.8 0.00 0.03 0.03 90 1018.7
20260903023016 21 113 3.2 9.7 0.00 0.03 0.03 90 1018.8
20260903022516 21 113 3.2 9.7 0.00 0.03 0.03 90 1019.0
20260903022016 21 113 3.2 9.7 0.00 0.03 0.03 90 1018.8
20260903021516 21 113 1.6 8.0 0.00 0.03 0.03 90 1018.4
20260903021017 21 113 6.4 11.3 0.00 0.03 0.03 90 1018.4
20260903020517 21 113 3.2 11.3 0.00 0.03 0.03 89 1018.3
20260903020016 21 113 6.4 16.1 0.00 0.03 0.03 89 1018.2
20260903015517 21 135 6.4 14.5 0.00 0.03 0.03 89 1018.4
20260903015016 21 113 4.8 11.3 0.00 0.03 0.03 89 1018.5
20260903014536 21 113 4.8 12.9 0.00 0.03 0.03 89 1018.6
20260903014017 21 113 3.2 9.7 0.00 0.03 0.03 89 1019.0
20260903013537 21 113 6.4 14.5 0.00 0.03 0.03 89 1018.9
20260903013016 21 113 8.0 19.3 0.00 0.03 0.03 88 1018.7
20260903012537 21 113 6.4 12.9 0.00 0.03 0.03 88 1018.9
20260903012016 21 113 4.8 11.3 0.00 0.03 0.03 88 1019.0
20260903011516 21 113 6.4 14.5 0.00 0.03 0.03 88 1019.0
20260903011016 21 135 8.0 16.1 0.00 0.03 0.03 88 1019.1
20260903010516 21 113 4.8 9.7 0.00 0.03 0.03 88 1019.2
20260903010016 21 113 6.4 12.9 0.00 0.03 0.03 88 1019.2
20260903005516 21 113 6.4 11.3 0.00 0.03 0.03 88 1019.2
20260903005036 21 113 3.2 11.3 0.00 0.03 0.03 88 1019.4
20260903004536 21 113 3.2 6.4 0.00 0.03 0.03 88 1019.5
20260903004016 21 90 3.2 9.7 0.00 0.03 0.03 88 1019.4
20260903003516 21 113 6.4 12.9 0.00 0.03 0.03 88 1019.4
20260903003036 21 113 4.8 12.9 0.00 0.03 0.03 88 1019.3
20260903002536 21 113 6.4 14.5 0.00 0.03 0.03 88 1019.1
20260903002038 21 113 8.0 16.1 0.00 0.03 0.03 88 1019.0
20260903001516 21 113 6.4 16.1 0.00 0.03 0.03 88 1019.0
20260903001016 21 113 9.7 16.1 0.00 0.03 0.03 88 1018.9
20260903000516 21 113 4.8 14.5 0.00 0.03 0.03 88 1018.8
20260903000017 21 113 6.4 16.1 0.00 0.03 0.03 88 1018.8
20260902235516 21 113 6.4 14.5 0.00 0.03 0.03 87 1018.7
20260902235037 21 113 6.4 17.7 0.00 0.05 0.03 87 1018.9
20260902234516 21 113 6.4 11.3 0.00 0.05 0.03 87 1018.5
20260902233516 21 113 4.8 9.7 0.00 0.08 0.03 87 1018.5
20260902233016 21 113 8.0 16.1 0.00 0.08 0.03 87 1018.6
20260902232516 21 90 4.8 14.5 0.00 0.10 0.03 87 1018.5
20260902232016 21 113 6.4 14.5 0.00 0.10 0.03 87 1018.4
20260902231516 21 113 6.4 16.1 0.00 0.10 0.03 87 1018.4
20260902231016 21 113 9.7 19.3 0.00 0.10 0.03 87 1018.5
20260902230517 21 113 9.7 19.3 0.00 0.10 0.03 86 1018.5
20260902230016 21 113 8.0 17.7 0.00 0.13 0.03 86 1018.6
20260902225516 21 113 8.0 16.1 0.00 0.13 0.03 86 1018.7
20260902225016 21 113 8.0 16.1 0.00 0.13 0.03 86 1018.8
20260902224516 21 113 4.8 9.7 0.00 0.13 0.03 86 1019.1
20260902224016 21 113 6.4 12.9 0.00 0.13 0.03 86 1019.1
20260902223557 21 113 6.4 12.9 0.00 0.13 0.03 86 1019.1
20260902223016 21 113 6.4 16.1 0.00 0.20 0.03 86 1019.2
20260902222517 21 113 8.0 16.1 0.00 0.41 0.03 86 1019.2
20260902222037 21 113 9.7 19.3 0.00 0.76 0.03 85 1019.3
20260902221517 21 113 9.7 17.7 0.00 0.84 0.03 85 1019.2
20260902221016 21 113 6.4 14.5 0.00 0.86 0.03 86 1019.4
20260902220516 21 113 6.4 12.9 0.00 0.86 0.03 86 1019.6
20260902220016 21 113 4.8 11.3 0.00 0.86 0.03 86 1019.7
20260902215516 21 113 8.0 14.5 0.00 0.86 0.03 86 1019.6
20260902215016 21 113 6.4 16.1 0.00 0.86 0.03 86 1019.6
20260902214517 21 113 8.0 14.5 0.00 0.86 0.03 86 1019.7
20260902214016 21 113 8.0 14.5 0.00 0.86 0.03 86 1019.8
20260902213516 21 113 9.7 17.7 0.00 0.86 0.03 86 1019.8
20260902213017 21 113 8.0 16.1 0.00 0.86 0.03 86 1019.7
20260902212516 21 113 6.4 11.3 0.00 0.86 0.03 86 1019.6
20260902212058 21 135 4.8 9.7 0.00 0.86 0.03 86 1019.6
20260902211515 21 113 6.4 12.9 0.00 0.86 0.03 86 1019.5
20260902211037 21 113 8.0 16.1 0.00 0.86 0.03 86 1019.5
20260902210516 21 113 6.4 12.9 0.00 0.86 0.03 86 1019.5
20260902210016 21 113 4.8 12.9 0.00 0.86 0.03 87 1019.4
20260902205535 21 113 9.7 17.7 0.00 0.86 0.03 87 1019.2